Погода в Радомско

Польша     51°04′04″N   19°26′21″E
темп.,
°C
ветер,
м/с
пор.,
м/с
влажн.,
%
обл.,
%
осадки,
мм/ч
давл.,
гПа
погр.,
м
28 февраля, вс
вс2801:000зсз489519 0.1 1036181
04:000зсз489452 0.0 1035213
07:000зсз499476 0.0 1035287
10:00+2зсз699483 0.0 1034463
13:00+6з7106671 0.0 1032773
16:00+7зсз6107253 0.0 1032893
19:00+3сз5109336 0.0 1032443
22:00+3ссз589195 0.0 1033534
1 марта, пн
пн101:00+2сз369097 0.0 1034306
04:00+1ссз359483 0.0 1034311
07:00+1сз239591 0.0 1035206
10:00+2зсз2388100 0.0 1035332
13:00+5з3377100 0.0 1036485
16:00+7зсз237041 0.0 1034520
19:00+4зюз238521 0.0 103538
22:00+3зюз34900 0.0 103562
2 марта, вт
вт201:00+2зюз34900 0.0 103555
04:00+1зюз46910 0.0 1034118
07:00+1зюз47920 0.0 1034143
10:00+6з58710 0.0 1033383
13:00+10зсз58560 0.0 1032568
16:00+10зсз58540 0.0 1031561
19:00+6зсз34720 0.0 103375
22:00+4сз23850 0.0 103322
3 марта, ср
ср301:00+3зсз12880 0.0 103322
04:00+2з12890 0.0 103222
07:00+2з12890 0.0 103222
10:00+6зюз12680 0.0 1030253
13:00+10зюз22490 0.0 1028523
16:00+11зюз12450 0.0 1026421
19:00+7ююз22540 0.0 102522
22:00+5юз34680 0.0 102368
4 марта, чт
чт401:00+4юз47810 0.0 1022122
04:00+3зюз49882 0.0 1020164
07:00+2зюз498922 0.0 1018172
10:00+8з6106532 0.0 1016679
13:00+11з695435 0.0 10141025
16:00+11з576051 0.0 10121111
19:00+8з347375 0.0 101188
22:00+7з2387100 0.4 1011116